This is the latest recevied weather packets stored in our database for station/object GJ7DNI-13. If no packets are shown the sender has not sent any weather packets the latest 10 day(s).
| Time | Temp. | Humidity | Pressure | Rain* | Wind** | Luminosity | Snow |
|---|---|---|---|---|---|---|---|
| 1777643106 | 18.89° C | 62% | 1020 hPa | 0 mm | - | 737 W/m² | - |
| 1777642806 | 18.33° C | 63% | 1020 hPa | 0 mm | - | 740 W/m² | - |
| 1777642506 | 18.33° C | 64% | 1020 hPa | 0 mm | - | 545 W/m² | - |
| 1777642206 | 17.78° C | 66% | 1020 hPa | 0 mm | - | 515 W/m² | - |
| 1777641906 | 17.22° C | 65% | 1020.1 hPa | 0 mm | - | 566 W/m² | - |
| 1777641606 | 17.78° C | 65% | 1020.1 hPa | 0 mm | - | 394 W/m² | - |
| 1777641306 | 17.78° C | 66% | 1020.1 hPa | 0 mm | - | 438 W/m² | - |
| 1777641006 | 16.67° C | 68% | 1020.1 hPa | 0 mm | - | 977 W/m² | - |
| 1777640706 | 16.11° C | 68% | 1020.1 hPa | 0 mm | - | 940 W/m² | - |
| 1777640406 | 15.56° C | 70% | 1020.1 hPa | 0 mm | - | 603 W/m² | - |
| 1777640106 | 15.56° C | 70% | 1020 hPa | 0 mm | - | 441 W/m² | - |
| 1777639806 | 15.56° C | 69% | 1020.1 hPa | 0 mm | - | 538 W/m² | - |
| 1777639506 | 15.56° C | 69% | 1020 hPa | 0 mm | - | 403 W/m² | - |
| 1777639206 | 15° C | 70% | 1020 hPa | 0 mm | - | 455 W/m² | - |
| 1777638906 | 15° C | 71% | 1020 hPa | 0 mm | - | 480 W/m² | - |
| 1777638606 | 15.56° C | 72% | 1020.1 hPa | 0 mm | - | 352 W/m² | - |
| 1777638306 | 15° C | 72% | 1020.1 hPa | 0 mm | - | 297 W/m² | - |
| 1777638006 | 15° C | 72% | 1020.1 hPa | 0 mm | - | 288 W/m² | - |
| 1777637706 | 15° C | 72% | 1020.2 hPa | 0 mm | - | 244 W/m² | - |
| 1777637406 | 15° C | 72% | 1020.2 hPa | 0 mm | - | 190 W/m² | - |
| 1777637106 | 15° C | 73% | 1020.2 hPa | 0 mm | - | 225 W/m² | - |
| 1777636806 | 15° C | 73% | 1020.2 hPa | 0 mm | - | 186 W/m² | - |
| 1777636506 | 15° C | 73% | 1020.1 hPa | 0 mm | - | 206 W/m² | - |
| 1777636206 | 15° C | 73% | 1020.1 hPa | 0 mm | - | 227 W/m² | - |
| 1777635906 | 15° C | 74% | 1020.1 hPa | 0 mm | - | 267 W/m² | - |
* Rain latest hour (hover to see other rain measurements)
** Current wind speed in m/s (hover to see current wind gust speed)